Regional Weather Roundup
Issued by NWS Cleveland, OH

Home | Current Version | Previous Version | Text Only | Print | Product List | Glossary Off
Versions: 1 2 3 4 5 6 7 8 9 10 11 12 13 14 15 16 17 18 19 20 21 22 23 24 25 26 27 28 29 30 31 32 33 34 35 36 37 38 39 40 41 42 43 44 45 46 47 48 49 50

496
ASUS41 KCLE 230400
RWRCLE
OHIO REGIONAL WEATHER ROUNDUP
NATIONAL WEATHER SERVICE WILMINGTON, OH
1200 AM EDT SUN APR 23 2017

NOTE: "FAIR" INDICATES FEW OR NO CLOUDS BELOW 12,000 FEET WITH NO
SIGNIFICANT WEATHER AND/OR OBSTRUCTIONS TO VISIBILITY.

OHZ001>008-015>018-024>027-034-035-043-044-230500-
   NORTHWEST OHIO

CITY           SKY/WX    TMP DP  RH WIND       PRES   REMARKS
DEFIANCE       FAIR      43  33  68 NE3       30.14S
FINDLAY        FAIR      44  34  67 E6        30.12F
TOLEDO EXPRESS FAIR      40  34  79 CALM      30.14S
TOLEDO EXEC    FAIR      43  36  76 CALM      30.15S
LIMA           FAIR      41  35  79 E7        30.11F
$$

OHZ009>014-019>023-028>033-038-089-230500-
   NORTHEAST OHIO

CITY           SKY/WX    TMP DP  RH WIND       PRES   REMARKS
CLE-HOPKINS    MOCLDY    44  36  73 CALM      30.15S
CLE-LAKEFRONT  FAIR      45  38  76 CALM      30.13R
CUY CO. ARPT   NOT AVBL
LORAIN-ELYRIA  FAIR      40  35  83 N5        30.13F
ASHTABULA      FAIR      39  38  96 CALM      30.13S
AKRON-CANTON   FAIR      42  33  70 N6        30.11R
WOOSTER        NOT AVBL
MANSFIELD      FAIR      41  35  79 N5        30.11F
YOUNGSTOWN     CLOUDY    42  34  73 N8        30.11S
$$

OHZ042-051>053-060>062-070>072-077>081-230500-
  SOUTHWEST OHIO

CITY           SKY/WX    TMP DP  RH WIND       PRES   REMARKS
CINC-COVINGTON FAIR      48  35  60 NE15      30.06S
CINC-LUNKEN    FAIR      45  38  76 NE7       30.09R
HAMILTON       FAIR      47  36  65 NE10      30.09S
DAYTON         NOT AVBL
WRIGHT-PAT AFB NOT AVBL
DAYTON GENERAL FAIR      44  35  70 NE10      30.07S
WILMINGTON     FAIR      43  36  76 NE14      30.06F
$$

OHZ036-037-039>041-045>050-054>059-063>069-073>076-082>088-230500-
  CENTRAL AND SOUTHEAST OHIO

CITY           SKY/WX    TMP DP  RH WIND       PRES   REMARKS
COLUMBUS       FAIR      44  35  70 N8        30.08F
OSU AIRPORT    FAIR      41  35  79 N7        30.09F
BOLTON FIELD   NOT AVBL
RICKENBACK AFB NOT AVBL
NEWARK         FAIR      44  34  67 NE5       30.08F
MARION         FAIR      38  32  79 NE7       30.12S
LANCASTER      FAIR      45  36  70 N10       30.08F
ZANESVILLE     FAIR      46  35  65 N5        30.08F
NEW PHILLY     FAIR      44  35  70 CALM      30.11S
$$




USA.gov is the U.S. government's official web portal to all federal, state and local government web resources and services.